#timestamp,LO_Frequency,Hit 
1502082015.3,286046986.3,N
1502082035.1,286046988.0,N
1502082055.9,286046990.0,N
1502082075.7,286046983.7,N
1502082095.5,286046983.1,N
1502082115.4,286046982.3,N
1502082135.2,286046981.4,N
1502082155.1,286046980.2,N
1502082156.0,286046980.2,N
1502082175.8,286046977.9,N
1502082195.6,286046978.0,N
1502082215.5,286046981.6,N
1502082235.3,286046983.3,N
1502082255.1,286046981.3,N
1502082275.9,286046978.3,N
1502082295.7,286046979.5,N
1502082315.5,286046978.6,N
1502082335.4,286046974.1,N
1502082355.2,286046978.2,N
1502082375.0,286046980.6,N
1502082375.9,286046980.6,N
1502082395.8,286046983.2,N
1502082415.6,286046982.5,N
1502082435.4,286046980.6,N
1502082455.2,286046982.2,N
1502082475.1,286046985.3,N
1502082476.0,286046985.3,N
1502082495.8,286046987.0,N
1502082515.6,286046985.7,N
1502082535.5,286046987.2,N
1502082555.3,286046985.9,N
1502082575.1,286046984.6,N
1502082595.9,286046984.8,N
1502082615.7,286046981.5,N
1502082635.5,286046981.8,N
1502082655.4,286046980.8,N
1502082675.2,286046978.9,N
1502082695.0,286046981.5,N
1502082695.9,286046981.5,N
1502082715.7,286046980.5,N
1502082735.6,286046982.0,N
1502082755.4,286046982.9,N
1502082775.2,286046980.5,N
1502082795.1,286046981.8,N
1502082796.0,286046981.8,N
1502082815.8,286046983.9,N
1502082835.6,286046984.7,N
1502082855.5,286046983.8,N
1502082875.3,286046983.2,N
1502082895.1,286046977.5,N
1502082915.9,286046976.6,N
1502082935.7,286046977.3,N
1502082955.5,286046977.4,N
1502082975.4,286046977.5,N
1502082995.2,286046980.1,N
1502083015.0,286046975.9,N
1502083015.9,286046975.9,N
1502083035.7,286046978.0,N
1502083055.6,286046977.0,N
1502083075.4,286046975.8,N
1502083095.2,286046977.2,N
1502083115.1,286046975.9,N
1502083116.0,286046975.9,N
1502083135.8,286046981.3,N
1502083155.6,286046981.7,N
1502083175.5,286046980.3,N
1502083195.3,286046980.3,N
1502083215.1,286046981.9,N
1502083235.9,286046979.8,N
1502083255.7,286046977.3,N
1502083275.5,286046978.1,N
1502083295.3,286046979.9,N
1502083315.2,286046976.5,N
1502083335.0,286046977.0,N
1502083335.9,286046977.0,N
1502083355.7,286046975.8,N
1502083375.6,286046975.7,N
1502083395.4,286046978.8,N
1502083415.2,286046981.4,N
1502083435.1,286046981.5,N
1502083436.0,286046981.5,N
1502083455.8,286046983.1,N
1502083475.6,286046980.6,N
1502083495.5,286046984.8,N
1502083515.5,286046980.8,N
1502083535.3,286046982.3,N
1502083555.2,286046981.8,N
1502083575.9,286046981.6,N
1502083595.7,286046979.8,N
1502083615.6,286046981.7,N
1502083635.4,286046981.5,N
1502083655.2,286046980.9,N
1502083675.1,286046979.9,N
1502083676.0,286046979.9,N
1502083695.8,286046983.6,N
1502083715.6,286046982.8,N
1502083735.4,286046983.1,N
1502083755.3,286046980.6,N
1502083775.4,286046983.0,N
1502083795.2,286046984.0,N
1502083815.0,286046984.7,N
1502083815.9,286046984.7,N
1502083835.8,286046983.9,N
1502083855.6,286046980.8,N
1502083875.4,286046980.9,N
1502083895.3,286046979.4,N
1502083915.1,286046980.6,N
1502083916.0,286046980.6,N
1502083935.8,286046981.7,N
1502083955.6,286046983.3,N
1502083975.5,286046980.9,N
1502083995.3,286046983.5,N
1502084015.1,286046983.4,N
1502084035.9,286046985.1,N
1502084055.7,286046988.4,N
1502084075.5,286046987.5,N
1502084095.2,286046984.1,N
1502084115.9,286046986.5,N
1502084135.7,286046984.5,N
1502084155.6,286046984.4,N
1502084175.4,286046982.8,N
1502084195.2,286046983.5,N
1502084215.0,286046982.6,N
1502084215.9,286046982.6,N
1502084235.8,286046980.9,N
1502084255.6,286046981.7,N
1502084275.4,286046979.8,N
1502084295.3,286046978.2,N
1502084315.1,286046977.8,N
1502084316.0,286046977.8,N
1502084335.8,286046979.9,N
1502084355.7,286046982.8,N
1502084375.5,286046986.5,N
1502084395.3,286046984.4,N
1502084415.2,286046983.0,N
1502084435.9,286046981.0,N
1502084455.7,286046986.3,N
1502084475.5,286046983.8,N
1502084495.4,286046985.9,N
1502084515.2,286046984.0,N
1502084535.0,286046986.5,N
1502084535.9,286046986.5,N
1502084555.1,286046984.2,N
1502084575.8,286046986.4,N
1502084595.7,286046987.2,N
1502084615.5,286046987.0,N
1502084635.3,286046987.4,N
1502084655.2,286046985.3,N
1502084675.9,286046987.1,N
1502084695.7,286046986.5,N
1502084715.6,286046982.7,N
1502084735.4,286046980.5,N
1502084755.2,286046982.7,N
1502084775.0,286046981.9,N
1502084776.0,286046981.9,N
1502084795.8,286046979.3,N
1502084815.6,286046981.7,N
1502084835.4,286046981.9,N
1502084855.3,286046978.6,N
1502084875.1,286046978.0,N
1502084895.8,286046974.8,N
1502084915.7,286046974.5,N
1502084935.5,286046974.8,N
1502084955.3,286046980.0,N
1502084975.2,286046983.4,N
1502084995.9,286046982.7,N
1502085015.7,286046981.4,N
1502085035.6,286046980.5,N
1502085055.4,286046979.3,N
1502085075.2,286046978.1,N
1502085095.0,286046978.6,N
1502085095.9,286046978.6,N
1502085115.8,286046978.7,N
1502085135.6,286046976.9,N
1502085155.4,286046977.0,N
1502085175.3,286046976.5,N
1502085195.1,286046976.9,N
1502085215.8,286046978.4,N
1502085235.7,286046978.2,N
1502085255.5,286046980.4,N
1502085275.3,286046978.5,N
1502085295.2,286046976.6,N
1502085315.9,286046977.0,N
1502085335.7,286046974.1,N
1502085355.5,286046977.9,N
1502085375.4,286046975.7,N
1502085395.2,286046978.0,N
1502085415.0,286046980.3,N
1502085415.9,286046980.3,N
1502085435.8,286046978.5,N
1502085455.6,286046978.3,N
1502085475.4,286046978.6,N
1502085495.3,286046974.1,N
1502085515.1,286046972.9,N
1502085516.0,286046972.9,N
1502085535.8,286046974.0,N
1502085555.7,286046974.7,N
1502085575.5,286046976.1,N
1502085595.3,286046978.4,N
